Location: Gadern
(49.5873°N, 8.8138°E)
Time: 01:11:45
(UTC+00:00)

Cosmos 1697 Rocket - Pass Details

Date: 19 May 2025
Orbit: 830 x 844 km, 71.0° (Epoch: 23 June)

Event Time Altitude Azimuth Distance (km) Brightness Sun altitude
Rises 21:17:28 0° 326° (NW) 3,407 7.8 -15.2°
Reaches altitude 10° 21:20:02 10° 319° (NW) 2,469 6.4 -15.4°
Maximum altitude 21:25:16 40° 252° (WSW) 1,222 3.6 -15.8°
Enters shadow 21:29:07 17° 191° (S) 1,992 4.2 -16.1°
